Погода в Панькове

Россия / Костромская область     57°43′18″N   43°14′34″E
темп.,
°C
ветер,
м/с
пор.,
м/с
влажн.,
%
обл.,
%
осадки,
мм/ч
давл.,
гПа
погр.,
м
20 мая, пт
пт2000:00+1сз2792100 0.0 1012159
03:000ссз310975 0.0 1013318
06:00+2ссз4109246 0.0 1015479
09:00+7с575497 0.0 10151706
12:00+9с4639100 0.1 10152255
15:00+9с575293 0.6 10151736
18:00+8с464774 0.1 10151771
21:00+3ссз387521 0.1 1016195
21 мая, сб
сб2100:00+1ссз38925 0.0 1015174
03:00−1ссз27955 0.0 1015166
06:00+2с367495 0.0 1015326
09:00+6с4552100 0.0 10141407
12:00+9ссз3540100 0.0 10122093
15:00+10ссз4537100 0.0 10102313
18:00+9с365053 0.0 10101563
21:00+2ссв11795 0.1 101013
22 мая, вс
вс2200:000ссз23845 0.0 100941
03:00−1с25835 0.0 1008106
06:00+2с367011 0.0 1007277
09:00+7с584894 0.0 10051764
12:00+8с5845100 0.0 10041981
15:00+7с5751100 0.1 10041601
18:00+7с4858100 0.0 10041471
21:00+3ссз2777100 0.0 1004187
23 мая, пн
пн2300:00+3сз397971 0.0 1003378
03:00+3сз4108090 0.0 1001634
06:00+4сз51075100 0.0 1001981
09:00+4ссз5983100 0.3 1001965
12:00+7ссз5865100 0.4 10011422
15:00+5ссз4989100 1.1 1002973
18:00+3ссз51098100 1.6 1002830
21:00+2сз41198100 1.9 1003820
24 мая, вт
вт2400:00+2сз4998100 0.6 1003783
03:00+1сз3998100 1.4 1003718
06:00+2ссз4898100 0.8 1004651
09:00+2ссз3895100 1.1 1006628
12:00+4с4684100 0.3 1009858
15:00+5ссз3683100 0.4 1010858
18:00+5с3682100 0.1 1012816
21:00+4ссз3790100 0.1 1014394